Stevens Point, WI

7:25 PM CDT on September 25, 2017 (GMT -0500)
Stevens Point Municipal

Weather History for KSTE - January, 2013

Change the Weather History Date:

Thursday, January 3, 2013

  Actual Average Record
Temperature  
Mean Temperature 14 °F -  
Max Temperature 20 °F 23 °F 50 °F (1998)
Min Temperature 7 °F 6 °F -22 °F (2014)
Degree Days  
Heating Degree Days 52    
Moisture  
Dew Point 11 °F    
Average Humidity 81    
Maximum Humidity 85    
Minimum Humidity 76    
Precipitation  
Precipitation 0.00 in - - ()
Sea Level Pressure  
Sea Level Pressure 30.08 in    
Wind  
Wind Speed 7 mph (West)    
Max Wind Speed 14 mph    
Max Gust Speed 22 mph    
Visibility 7 miles    
Events Snow    
Averages and records for this station are not official NWS values.
T = Trace of Precipitation, MM = Missing Value Source: NWS Daily Summary

Daily Weather History Graph

Daily Weather History Graph

Search for Another Location

Airport or City:

Trip Planner

Search our weather history database for the weather conditions in past years. The results will help you decide how hot, cold, wet, or windy it might be!

Date:

Astronomy

Jan. 03, 2013 Rise Set
Actual Time 7:34 AM CST 4:31 PM CST
Civil Twilight 7:01 AM CST 5:04 PM CST
Nautical Twilight 6:24 AM CST 5:40 PM CST
Astronomical Twilight 5:49 AM CST 6:16 PM CST
Moon 11:23 PM CST (1/3) 10:30 AM CST (1/3)
Length of Visible Light 10h 02m
Length of Day
8h 56m
Waning Gibbous, 65% of the Moon is Illuminated
Jan 3
Waning Gibbous
Jan 4
Last Quarter
Jan 11
New
Jan 18
First Quarter
Jan 26
Full

Hourly Weather History & Observations

Time (CST) Temp. Windchill Dew Point Humidity Pressure Visibility Wind Dir Wind Speed Gust Speed Precip Events Conditions
12:15 AM 17.6 °F 9.3 °F 11.3 °F 76% 30.00 in 10.0 mi West 5.8 mph - N/A   Overcast
12:35 AM 17.6 °F 12.3 °F 11.3 °F 76% 29.99 in 7.0 mi West 3.5 mph - N/A Snow Light Snow
12:55 AM 17.6 °F 10.7 °F 11.5 °F 77% 30.00 in 7.0 mi West 4.6 mph - N/A   Overcast
1:15 AM 17.4 °F 9.1 °F 11.8 °F 79% 30.00 in 7.0 mi West 5.8 mph - N/A   Overcast
1:35 AM 17.2 °F 10.2 °F 11.7 °F 79% 29.99 in 7.0 mi West 4.6 mph - N/A Snow Light Snow
1:55 AM 17.2 °F 11.9 °F 11.3 °F 78% 30.00 in 10.0 mi WNW 3.5 mph - N/A   Overcast
2:15 AM 17.1 °F 8.7 °F 11.3 °F 78% 30.00 in 10.0 mi WNW 5.8 mph - N/A   Overcast
2:35 AM 16.9 °F 9.8 °F 11.3 °F 79% 30.01 in 7.0 mi West 4.6 mph - N/A   Overcast
2:55 AM 16.7 °F 8.3 °F 11.3 °F 79% 30.00 in 7.0 mi West 5.8 mph - N/A   Overcast
3:15 AM 16.5 °F 8.1 °F 11.5 °F 81% 29.99 in 7.0 mi WSW 5.8 mph - N/A   Overcast
3:35 AM 16.5 °F 5.1 °F 11.5 °F 81% 30.00 in 7.0 mi West 9.2 mph - N/A   Overcast
3:55 AM 16.5 °F 6.9 °F 11.3 °F 80% 30.01 in 7.0 mi WNW 6.9 mph - N/A   Overcast
4:15 AM 16.2 °F 3.9 °F 10.9 °F 80% 30.00 in 7.0 mi West 10.4 mph - N/A   Overcast
4:35 AM 15.8 °F 5.1 °F 10.6 °F 80% 30.01 in 7.0 mi WNW 8.1 mph - N/A   Overcast
4:55 AM 15.6 °F 5.9 °F 10.0 °F 79% 30.02 in 7.0 mi WNW 6.9 mph - N/A   Overcast
5:15 AM 15.6 °F 7.0 °F 10.0 °F 79% 30.02 in 7.0 mi WNW 5.8 mph - N/A   Overcast
5:35 AM 15.4 °F 8.1 °F 10.0 °F 79% 30.03 in 7.0 mi WNW 4.6 mph - N/A   Overcast
5:55 AM 15.4 °F 5.6 °F 10.2 °F 80% 30.04 in 7.0 mi WNW 6.9 mph - N/A   Overcast
6:15 AM 15.4 °F 8.1 °F 10.4 °F 80% 30.04 in 7.0 mi WNW 4.6 mph - N/A   Overcast
6:35 AM 15.4 °F 6.8 °F 10.8 °F 82% 30.05 in 7.0 mi WNW 5.8 mph - N/A   Overcast
6:55 AM 15.4 °F 8.1 °F 11.1 °F 83% 30.06 in 5.0 mi WNW 4.6 mph - N/A   Overcast
7:15 AM 15.4 °F 8.1 °F 11.3 °F 84% 30.06 in 5.0 mi WNW 4.6 mph - N/A Snow Light Snow
7:35 AM 15.6 °F 7.0 °F 11.7 °F 84% 30.07 in 4.0 mi WNW 5.8 mph - N/A   Overcast
7:55 AM 15.6 °F 7.0 °F 11.8 °F 85% 30.07 in 4.0 mi WNW 5.8 mph - N/A Snow Light Snow
8:15 AM 15.8 °F 8.6 °F 12.0 °F 85% 30.08 in 3.0 mi West 4.6 mph - N/A Snow Light Snow
8:35 AM 16.2 °F 7.6 °F 12.2 °F 84% 30.09 in 3.0 mi West 5.8 mph - N/A Snow Light Snow
8:55 AM 16.5 °F 9.4 °F 12.6 °F 84% 30.09 in 3.0 mi West 4.6 mph - N/A Snow Light Snow
9:15 AM 16.7 °F 8.3 °F 12.7 °F 84% 30.10 in 4.0 mi West 5.8 mph - N/A Snow Light Snow
9:35 AM 17.4 °F 7.1 °F 13.1 °F 83% 30.11 in 4.0 mi West 8.1 mph - N/A   Overcast
9:55 AM 17.6 °F 10.7 °F 13.1 °F 83% 30.12 in 3.0 mi West 4.6 mph - N/A Snow Light Snow
10:15 AM 18.1 °F 10.0 °F 13.1 °F 81% 30.12 in 4.0 mi WNW 5.8 mph - N/A   Haze
10:35 AM 18.9 °F 9.8 °F 13.8 °F 81% 30.12 in 4.0 mi WNW 6.9 mph - N/A Snow Light Snow
10:55 AM 19.4 °F 10.4 °F 14.2 °F 80% 30.12 in 4.0 mi WNW 6.9 mph - N/A Snow Light Snow
11:15 AM 19.9 °F 9.3 °F 14.9 °F 81% 30.11 in 4.0 mi West 9.2 mph - N/A Snow Light Snow
11:35 AM 20.1 °F 9.5 °F 15.3 °F 81% 30.11 in 4.0 mi NW 9.2 mph - N/A   Haze
11:55 AM 20.1 °F 9.5 °F 14.9 °F 80% 30.10 in 4.0 mi NW 9.2 mph 17.3 mph N/A   Haze
12:15 PM 20.1 °F 10.3 °F 15.1 °F 81% 30.10 in 5.0 mi West 8.1 mph - N/A   Haze
12:35 PM 20.1 °F 10.3 °F 15.4 °F 82% 30.10 in 5.0 mi WNW 8.1 mph - N/A   Haze
12:55 PM 19.9 °F 8.6 °F 15.1 °F 81% 30.10 in 5.0 mi WNW 10.4 mph 19.6 mph N/A   Haze
1:15 PM 19.9 °F 10.1 °F 15.3 °F 82% 30.10 in 5.0 mi West 8.1 mph - N/A   Haze
1:35 PM 20.1 °F 8.8 °F 15.1 °F 81% 30.10 in 5.0 mi West 10.4 mph 16.1 mph N/A   Haze
1:55 PM 20.3 °F 10.6 °F 14.9 °F 80% 30.11 in 7.0 mi West 8.1 mph - N/A   Overcast
2:15 PM 20.3 °F 10.6 °F 14.9 °F 80% 30.11 in 7.0 mi West 8.1 mph 18.4 mph N/A   Overcast
2:35 PM 20.1 °F 9.5 °F 14.9 °F 80% 30.11 in 7.0 mi West 9.2 mph 16.1 mph N/A   Overcast
2:55 PM 20.1 °F 11.3 °F 14.9 °F 80% 30.11 in 7.0 mi West 6.9 mph - N/A   Overcast
3:15 PM 19.9 °F 8.6 °F 15.3 °F 82% 30.12 in 7.0 mi West 10.4 mph 18.4 mph N/A   Overcast
3:35 PM 19.4 °F 7.9 °F 14.4 °F 81% 30.12 in 7.0 mi West 10.4 mph 21.9 mph N/A   Overcast
3:55 PM 19.4 °F 6.6 °F 14.4 °F 81% 30.13 in 7.0 mi West 12.7 mph 17.3 mph N/A   Overcast
4:15 PM 18.5 °F 6.1 °F 13.6 °F 81% 30.13 in 7.0 mi West 11.5 mph - N/A   Overcast
4:52 PM 17.6 °F 8.2 °F 12.2 °F 79% 30.13 in 7.0 mi West 6.9 mph - N/A   Overcast
5:15 PM 16.7 °F 2.6 °F 12.2 °F 82% 30.13 in 7.0 mi West 13.8 mph 17.3 mph N/A   Overcast
5:35 PM 16.5 °F 3.6 °F 11.8 °F 82% 30.14 in 10.0 mi West 11.5 mph 19.6 mph N/A   Overcast
5:55 PM 16.3 °F 4.9 °F 11.7 °F 82% 30.14 in 7.0 mi West 9.2 mph 18.4 mph N/A   Overcast
6:15 PM 16.3 °F 4.1 °F 11.8 °F 82% 30.14 in 7.0 mi West 10.4 mph - N/A   Overcast
6:35 PM 15.8 °F 4.2 °F 11.1 °F 82% 30.13 in 10.0 mi WSW 9.2 mph 17.3 mph N/A   Overcast
6:55 PM 15.4 °F 3.8 °F 10.4 °F 80% 30.13 in 10.0 mi WSW 9.2 mph - N/A   Overcast
7:15 PM 14.9 °F 3.1 °F 10.2 °F 82% 30.13 in 10.0 mi WSW 9.2 mph - N/A   Overcast
7:35 PM 14.4 °F 3.3 °F 9.7 °F 82% 30.13 in 10.0 mi WSW 8.1 mph - N/A   Mostly Cloudy
7:55 PM 13.6 °F 2.5 °F 9.1 °F 82% 30.13 in 10.0 mi West 8.1 mph 17.3 mph N/A   Overcast
8:15 PM 12.9 °F 0.7 °F 8.6 °F 83% 30.12 in 10.0 mi WSW 9.2 mph - N/A   Mostly Cloudy
8:35 PM 12.2 °F -1.0 °F 7.7 °F 82% 30.11 in 10.0 mi West 10.4 mph - N/A   Clear
8:55 PM 11.7 °F -3.2 °F 6.8 °F 81% 30.11 in 10.0 mi West 12.7 mph 21.9 mph N/A   Clear
9:15 PM 11.1 °F -2.4 °F 5.9 °F 80% 30.10 in 10.0 mi WSW 10.4 mph 17.3 mph N/A   Clear
9:35 PM 10.6 °F -1.3 °F 5.2 °F 79% 30.09 in 10.0 mi WSW 8.1 mph - N/A   Clear
9:55 PM 10.2 °F -1.7 °F 5.0 °F 79% 30.10 in 10.0 mi WSW 8.1 mph - N/A   Clear
10:15 PM 9.5 °F -4.4 °F 4.8 °F 81% 30.10 in 10.0 mi WSW 10.4 mph 17.3 mph N/A   Clear
10:35 PM 8.6 °F -4.7 °F 3.9 °F 81% 30.10 in 10.0 mi WSW 9.2 mph 17.3 mph N/A   Clear
10:55 PM 8.1 °F -6.2 °F 3.0 °F 80% 30.09 in 10.0 mi WSW 10.4 mph 16.1 mph N/A   Clear
11:15 PM 7.7 °F -6.6 °F 2.8 °F 81% 30.08 in 10.0 mi WSW 10.4 mph 17.3 mph N/A   Clear
11:35 PM 7.5 °F -9.1 °F 3.0 °F 82% 30.07 in 10.0 mi WSW 13.8 mph 19.6 mph N/A   Clear
11:55 PM 7.3 °F -7.9 °F 3.2 °F 83% 30.06 in 10.0 mi WSW 11.5 mph - N/A   Clear